,,Stat6,,Stat2,,Stat8,,Stat9,,Stat10,,Wind1,,Wind1,
time,status,PA1M_AVG,status,PR1M_SUM,status,RH1M_AVG,status,SR1M_AVG,status,TA1M_AVG,status,W1dAve1m,status,W1sAve1m,
2008-02-14, 00:00:00,VALID,918.877,VALID,0,VALID,98.5786,VALID,0,VALID,19.5952,VALID,168,VALID,0.893821,
2008-02-14, 00:01:00,VALID,918.883,VALID,0,VALID,98.5926,VALID,-0.0339617,VALID,19.5823,VALID,170,VALID,0.657366,
2008-02-14, 00:02:00,VALID,918.87,VALID,0,VALID,98.7236,VALID,0,VALID,19.5823,VALID,170,VALID,0.211128,
2008-02-14, 00:03:00,VALID,918.859,VALID,0,VALID,98.8227,VALID,-0.0169808,VALID,19.595,VALID,170,VALID,0,
2008-02-14, 00:04:00,VALID,918.84,VALID,0,VALID,98.8215,VALID,-0.0169808,VALID,19.598,VALID,170,VALID,0,
2008-02-14, 00:05:00,VALID,918.816,VALID,0,VALID,98.824,VALID,0,VALID,19.6115,VALID,170,VALID,0,
2008-02-14, 00:06:00,VALID,918.801,VALID,0,VALID,98.6498,VALID,0,VALID,19.5947,VALID,170,VALID,0,
2008-02-14, 00:07:00,VALID,918.793,VALID,0,VALID,98.5977,VALID,0,VALID,19.5693,VALID,170,VALID,0,
2008-02-14, 00:08:00,VALID,918.801,VALID,0,VALID,98.693,VALID,0,VALID,19.572,VALID,170,VALID,0,
2008-02-14, 00:09:00,VALID,918.81,VALID,0,VALID,98.7388,VALID,0.0169808,VALID,19.565,VALID,170,VALID,0,
2008-02-14, 00:10:00,VALID,918.818,VALID,0,VALID,98.6981,VALID,0,VALID,19.5523,VALID,169,VALID,0,
2008-02-14, 00:11:00,VALID,918.815,VALID,0,VALID,98.7172,VALID,-0.0169808,VALID,19.5333,VALID,167,VALID,0,
2008-02-14, 00:12:00,VALID,918.794,VALID,0,VALID,98.7566,VALID,0,VALID,19.4942,VALID,164,VALID,0,
2008-02-14, 00:13:00,VALID,918.77,VALID,0,VALID,99.0478,VALID,0.0169808,VALID,19.4839,VALID,143,VALID,0,
2008-02-14, 00:14:00,VALID,918.754,VALID,0,VALID,99.3098,VALID,0,VALID,19.4647,VALID,127,VALID,0,
2008-02-14, 00:15:00,VALID,918.734,VALID,0,VALID,99.3861,VALID,-0.0509425,VALID,19.4323,VALID,129,VALID,0,
2008-02-14, 00:16:00,VALID,918.723,VALID,0,VALID,99.5768,VALID,0,VALID,19.4001,VALID,136,VALID,0.153392,
2008-02-14, 00:17:00,VALID,918.718,VALID,0,VALID,99.7981,VALID,-0.0339617,VALID,19.3899,VALID,155,VALID,0.0508765,
2008-02-14, 00:18:00,VALID,918.711,VALID,0,VALID,99.676,VALID,0,VALID,19.3577,VALID,141,VALID,0.44184,
2008-02-14, 00:19:00,VALID,918.696,VALID,0,VALID,99.8629,VALID,0,VALID,19.3454,VALID,160,VALID,0.860283,
2008-02-14, 00:20:00,VALID,918.69,VALID,0,VALID,99.9814,VALID,0.0169808,VALID,19.322,VALID,161,VALID,0.875,
2008-02-14, 00:21:00,VALID,918.697,VALID,0,VALID,100,VALID,-0.0169808,VALID,19.2958,VALID,160,VALID,1.11464,
2008-02-14, 00:22:00,VALID,918.693,VALID,0,VALID,100,VALID,0,VALID,19.2803,VALID,158,VALID,0.589658,
2008-02-14, 00:23:00,VALID,918.698,VALID,0,VALID,100,VALID,0,VALID,19.2479,VALID,160,VALID,1.23691,
2008-02-14, 00:24:00,VALID,918.708,VALID,0,VALID,100,VALID,0,VALID,19.2314,VALID,165,VALID,0.865945,
2008-02-14, 00:25:00,VALID,918.713,VALID,0,VALID,100,VALID,-0.0169808,VALID,19.2082,VALID,163,VALID,0.957889,
2008-02-14, 00:26:00,VALID,918.7,VALID,0,VALID,100,VALID,0,VALID,19.1887,VALID,165,VALID,0.974848,
2008-02-14, 00:27:00,VALID,918.682,VALID,0,VALID,100,VALID,-0.0339617,VALID,19.1927,VALID,170,VALID,0.336293,
2008-02-14, 00:28:00,VALID,918.655,VALID,0,VALID,100,VALID,0,VALID,19.1695,VALID,160,VALID,0.700284,
2008-02-14, 00:29:00,VALID,918.646,VALID,0,VALID,100,VALID,-0.0169808,VALID,19.1568,VALID,162,VALID,1.00071,
2008-02-14, 00:30:00,VALID,918.623,VALID,0,VALID,100,VALID,0.0339617,VALID,19.1368,VALID,154,VALID,0.470656,
2008-02-14, 00:31:00,VALID,918.602,VALID,0,VALID,100,VALID,0.0169808,VALID,19.1141,VALID,155,VALID,0.481027,
2008-02-14, 00:32:00,VALID,918.596,VALID,0,VALID,100,VALID,0.0339617,VALID,19.1049,VALID,149,VALID,0.170387,
2008-02-14, 00:33:00,VALID,918.582,VALID,0,VALID,100,VALID,0.0169808,VALID,19.0817,VALID,149,VALID,0,
2008-02-14, 00:34:00,VALID,918.576,VALID,0,VALID,100,VALID,0.0679233,VALID,19.0782,VALID,160,VALID,0.321948,
2008-02-14, 00:35:00,VALID,918.582,VALID,0,VALID,100,VALID,0.0339617,VALID,19.0685,VALID,163,VALID,0.704427,
2008-02-14, 00:36:00,VALID,918.562,VALID,0,VALID,100,VALID,0.0169808,VALID,19.0757,VALID,158,VALID,0.714026,
2008-02-14, 00:37:00,VALID,918.53,VALID,0,VALID,100,VALID,0.0339617,VALID,19.0782,VALID,151,VALID,0.64335,
2008-02-14, 00:38:00,VALID,918.515,VALID,0,VALID,100,VALID,0.0339617,VALID,19.0814,VALID,154,VALID,0.59375,
2008-02-14, 00:39:00,VALID,918.506,VALID,0,VALID,100,VALID,0,VALID,19.0817,VALID,158,VALID,0.507102,
2008-02-14, 00:40:00,VALID,918.522,VALID,0,VALID,100,VALID,0,VALID,19.072,VALID,158,VALID,0.761541,
2008-02-14, 00:41:00,VALID,918.516,VALID,0,VALID,100,VALID,0.0169808,VALID,19.0944,VALID,162,VALID,0.756669,
2008-02-14, 00:42:00,VALID,918.528,VALID,0,VALID,100,VALID,0.0339617,VALID,19.1074,VALID,175,VALID,0.64974,
2008-02-14, 00:43:00,VALID,918.524,VALID,0,VALID,100,VALID,0.0509425,VALID,19.1239,VALID,177,VALID,0.470052,
2008-02-14, 00:44:00,VALID,918.513,VALID,0,VALID,100,VALID,0.0169808,VALID,19.1466,VALID,150,VALID,0.547433,
2008-02-14, 00:45:00,VALID,918.497,VALID,0,VALID,100,VALID,0.0169808,VALID,19.1723,VALID,149,VALID,1.06577,
2008-02-14, 00:46:00,VALID,918.479,VALID,0,VALID,100,VALID,0,VALID,19.1917,VALID,129,VALID,0.405469,
2008-02-14, 00:47:00,VALID,918.468,VALID,0,VALID,100,VALID,0.0339617,VALID,19.2174,VALID,136,VALID,0.680088,
2008-02-14, 00:48:00,VALID,918.47,VALID,0,VALID,100,VALID,0.0509425,VALID,19.2469,VALID,146,VALID,0.71439,
2008-02-14, 00:49:00,VALID,918.462,VALID,0,VALID,100,VALID,0.0509425,VALID,19.2761,VALID,141,VALID,0.570499,
2008-02-14, 00:50:00,VALID,918.464,VALID,0,VALID,100,VALID,0.0679233,VALID,19.2858,VALID,141,VALID,0.611979,
2008-02-14, 00:51:00,VALID,918.451,VALID,0,VALID,100,VALID,0,VALID,19.2953,VALID,151,VALID,0.409598,
2008-02-14, 00:52:00,VALID,918.441,VALID,0,VALID,100,VALID,0.0509425,VALID,19.2886,VALID,146,VALID,0.0539608,
2008-02-14, 00:53:00,VALID,918.434,VALID,0,VALID,100,VALID,0.0679233,VALID,19.3015,VALID,137,VALID,0.734201,
2008-02-14, 00:54:00,VALID,918.411,VALID,0,VALID,100,VALID,0.0339617,VALID,19.315,VALID,148,VALID,0.522852,
2008-02-14, 00:55:01,VALID,918.394,VALID,0,VALID,100,VALID,0.0169808,VALID,19.3085,VALID,153,VALID,0.326308,
2008-02-14, 00:56:00,VALID,918.393,VALID,0,VALID,100,VALID,0.0339617,VALID,19.2985,VALID,150,VALID,0.53105,
2008-02-14, 00:57:01,VALID,918.408,VALID,0,VALID,100,VALID,0.0339617,VALID,19.302,VALID,146,VALID,0.759028,
2008-02-14, 00:58:00,VALID,918.406,VALID,0,VALID,100,VALID,-0.0339617,VALID,19.3035,VALID,162,VALID,0.704427,
2008-02-14, 00:59:00,VALID,918.414,VALID,0,VALID,100,VALID,-0.0849042,VALID,19.2873,VALID,158,VALID,0.582617,
2008-02-14, 01:00:00,VALID,918.38,VALID,0,VALID,100,VALID,-0.101885,VALID,19.2808,VALID,168,VALID,0.530401,
2008-02-14, 01:01:01,VALID,918.368,VALID,0,VALID,100,VALID,-0.0849042,VALID,19.274,VALID,173,VALID,0.458133,
2008-02-14, 01:02:01,VALID,918.328,VALID,0,VALID,100,VALID,-0.0339617,VALID,19.2611,VALID,175,VALID,0.00247713,
2008-02-14, 01:03:01,VALID,918.321,VALID,0,VALID,100,VALID,-0.0679233,VALID,19.2444,VALID,175,VALID,0,
2008-02-14, 01:04:00,VALID,918.298,VALID,0,VALID,100,VALID,-0.0509425,VALID,19.2349,VALID,155,VALID,0.0753906,
2008-02-14, 01:05:01,VALID,918.295,VALID,0,VALID,100,VALID,-0.0509425,VALID,19.2189,VALID,147,VALID,0.516555,
2008-02-14, 01:06:01,VALID,918.294,VALID,0,VALID,100,VALID,-0.101885,VALID,19.2092,VALID,154,VALID,0.218023,
2008-02-14, 01:07:00,VALID,918.304,VALID,0,VALID,100,VALID,-0.0849042,VALID,19.1964,VALID,138,VALID,0.768643,
2008-02-14, 01:08:00,VALID,918.31,VALID,0,VALID,100,VALID,-0.0679233,VALID,19.1705,VALID,156,VALID,0.744141,
2008-02-14, 01:09:01,VALID,918.301,VALID,0,VALID,100,VALID,-0.0509425,VALID,19.1637,VALID,159,VALID,0.92016,
2008-02-14, 01:10:00,VALID,918.301,VALID,0,VALID,100,VALID,-0.0849042,VALID,19.154,VALID,156,VALID,0.535528,
2008-02-14, 01:11:01,VALID,918.279,VALID,0,VALID,100,VALID,-0.0679233,VALID,19.1445,VALID,157,VALID,0.799162,
2008-02-14, 01:12:00,VALID,918.259,VALID,0,VALID,100,VALID,-0.0339617,VALID,19.1443,VALID,167,VALID,0.88457,
2008-02-14, 01:13:00,VALID,918.246,VALID,0,VALID,100,VALID,-0.0509425,VALID,19.1341,VALID,169,VALID,0.0853659,
2008-02-14, 01:14:00,VALID,918.233,VALID,0,VALID,100,VALID,-0.0339617,VALID,19.1278,VALID,164,VALID,0.84375,
2008-02-14, 01:15:00,VALID,918.226,VALID,0,VALID,100,VALID,-0.0849042,VALID,19.1151,VALID,159,VALID,0.717478,
2008-02-14, 01:16:00,VALID,918.205,VALID,0,VALID,100,VALID,-0.0509425,VALID,19.1153,VALID,162,VALID,1.04433,
2008-02-14, 01:17:00,VALID,918.215,VALID,0,VALID,100,VALID,-0.0679233,VALID,19.0991,VALID,159,VALID,0.596912,
2008-02-14, 01:18:01,VALID,918.206,VALID,0,VALID,100,VALID,-0.0169808,VALID,19.0954,VALID,163,VALID,0.74907,
2008-02-14, 01:19:00,VALID,918.2,VALID,0,VALID,100,VALID,-0.0849042,VALID,19.1016,VALID,148,VALID,0.535061,
2008-02-14, 01:20:01,VALID,918.183,VALID,0,VALID,100,VALID,-0.0679233,VALID,19.0989,VALID,106,VALID,0.00285823,
2008-02-14, 01:21:00,VALID,918.194,VALID,0,VALID,100,VALID,-0.0509425,VALID,19.0894,VALID,137,VALID,0.618641,
2008-02-14, 01:22:00,VALID,918.206,VALID,0,VALID,100,VALID,-0.0339617,VALID,19.0824,VALID,148,VALID,0.851004,
2008-02-14, 01:23:00,VALID,918.205,VALID,0,VALID,100,VALID,-0.0679233,VALID,19.0891,VALID,168,VALID,0.319727,
2008-02-14, 01:24:00,VALID,918.205,VALID,0,VALID,100,VALID,-0.0339617,VALID,19.1051,VALID,145,VALID,0,
2008-02-14, 01:25:01,VALID,918.198,VALID,0,VALID,100,VALID,-0.0849042,VALID,19.1348,VALID,160,VALID,0.708757,
2008-02-14, 01:26:01,VALID,918.176,VALID,0,VALID,100,VALID,-0.0509425,VALID,19.1505,VALID,153,VALID,0.865734,
2008-02-14, 01:27:00,VALID,918.149,VALID,0,VALID,100,VALID,-0.0509425,VALID,19.1538,VALID,160,VALID,0.910547,
2008-02-14, 01:28:01,VALID,918.129,VALID,0,VALID,100,VALID,-0.0339617,VALID,19.1565,VALID,155,VALID,0.192336,
2008-02-14, 01:29:00,VALID,918.115,VALID,0,VALID,100,VALID,-0.0169808,VALID,19.1535,VALID,146,VALID,0.971912,
2008-02-14, 01:30:00,VALID,918.117,VALID,0,VALID,100,VALID,-0.0339617,VALID,19.1573,VALID,153,VALID,0.7234,
2008-02-14, 01:31:00,VALID,918.148,VALID,0,VALID,100,VALID,-0.0169808,VALID,19.1668,VALID,150,VALID,1.0248,
2008-02-14, 01:32:00,VALID,918.094,VALID,0,VALID,100,VALID,0,VALID,19.1897,VALID,123,VALID,0.661644,
2008-02-14, 01:33:01,VALID,918.098,VALID,0,VALID,100,VALID,-0.0679233,VALID,19.1668,VALID,132,VALID,0.54652,
2008-02-14, 01:34:00,VALID,918.091,VALID,0,VALID,100,VALID,0,VALID,19.1732,VALID,148,VALID,0.699396,
2008-02-14, 01:35:00,VALID,918.082,VALID,0,VALID,100,VALID,0,VALID,19.1802,VALID,146,VALID,0.455602,
2008-02-14, 01:36:00,VALID,918.083,VALID,0,VALID,100,VALID,0,VALID,19.1595,VALID,138,VALID,1.11843,
2008-02-14, 01:37:01,VALID,918.075,VALID,0,VALID,100,VALID,-0.0169808,VALID,19.1593,VALID,130,VALID,1.16927,
2008-02-14, 01:38:00,VALID,918.087,VALID,0,VALID,100,VALID,0.0169808,VALID,19.1827,VALID,135,VALID,0.963415,
2008-02-14, 01:39:00,VALID,918.1,VALID,0,VALID,100,VALID,-0.0169808,VALID,19.1762,VALID,150,VALID,0.87429,
2008-02-14, 01:40:01,VALID,918.098,VALID,0,VALID,100,VALID,0.0169808,VALID,19.1855,VALID,140,VALID,0.748094,
2008-02-14, 01:41:00,VALID,918.104,VALID,0,VALID,99.9794,VALID,0,VALID,19.1822,VALID,127,VALID,0.683061,
2008-02-14, 01:42:01,VALID,918.11,VALID,0,VALID,99.7993,VALID,0.0169808,VALID,19.169,VALID,115,VALID,0.604539,
2008-02-14, 01:43:00,VALID,918.119,VALID,0,VALID,99.7332,VALID,0.0509425,VALID,19.1289,VALID,114,VALID,0.431771,
2008-02-14, 01:44:01,VALID,918.095,VALID,0,VALID,99.8464,VALID,0.0509425,VALID,19.1099,VALID,114,VALID,0.0426962,
2008-02-14, 01:45:00,VALID,918.068,VALID,0,VALID,99.9893,VALID,0.0509425,VALID,19.0999,VALID,134,VALID,0,
2008-02-14, 01:46:00,VALID,918.05,VALID,0,VALID,100,VALID,0.101885,VALID,19.0742,VALID,131,VALID,0,
2008-02-14, 01:47:00,VALID,918.023,VALID,0,VALID,100,VALID,0.101885,VALID,19.0583,VALID,146,VALID,1.02622,
2008-02-14, 01:48:00,VALID,917.989,VALID,0,VALID,100,VALID,0.0679233,VALID,19.0807,VALID,149,VALID,1.24618,
2008-02-14, 01:49:01,VALID,917.963,VALID,0,VALID,100,VALID,0.0679233,VALID,19.068,VALID,143,VALID,1.13333,
2008-02-14, 01:50:01,VALID,917.936,VALID,0,VALID,100,VALID,0.0509425,VALID,19.0685,VALID,134,VALID,1.1029,
2008-02-14, 01:51:01,VALID,917.934,VALID,0,VALID,100,VALID,0.0849042,VALID,19.0645,VALID,156,VALID,1.30332,
2008-02-14, 01:52:01,VALID,917.945,VALID,0,VALID,100,VALID,0.0679233,VALID,19.0715,VALID,126,VALID,0.394176,
2008-02-14, 01:53:01,VALID,917.949,VALID,0,VALID,100,VALID,0.0679233,VALID,19.0807,VALID,146,VALID,0.857525,
2008-02-14, 01:54:01,VALID,917.938,VALID,0,VALID,100,VALID,0.101885,VALID,19.0875,VALID,143,VALID,0.953311,
2008-02-14, 01:55:01,VALID,917.928,VALID,0,VALID,100,VALID,0.0849042,VALID,19.0872,VALID,145,VALID,1.02435,
2008-02-14, 01:56:01,VALID,917.912,VALID,0,VALID,100,VALID,0.0679233,VALID,19.0935,VALID,149,VALID,0.883854,
2008-02-14, 01:57:00,VALID,917.896,VALID,0,VALID,100,VALID,0.0849042,VALID,19.0872,VALID,151,VALID,0.989583,
2008-02-14, 01:58:00,VALID,917.896,VALID,0,VALID,100,VALID,-0.0849042,VALID,19.0989,VALID,137,VALID,1.04727,
2008-02-14, 01:59:00,VALID,917.882,VALID,0,VALID,100,VALID,-0.0679233,VALID,19.1051,VALID,137,VALID,1.35369,
2008-02-14, 02:00:00,VALID,917.901,VALID,0,VALID,100,VALID,-0.0679233,VALID,19.1054,VALID,149,VALID,1.08575,
2008-02-14, 02:01:00,VALID,917.889,VALID,0,VALID,100,VALID,-0.0509425,VALID,19.1153,VALID,143,VALID,0.936738,
2008-02-14, 02:02:00,VALID,917.866,VALID,0,VALID,100,VALID,0,VALID,19.1014,VALID,135,VALID,0.913681,
2008-02-14, 02:03:00,VALID,917.855,VALID,0,VALID,100,VALID,-0.0169808,VALID,19.1054,VALID,145,VALID,1.20368,
2008-02-14, 02:04:00,VALID,917.842,VALID,0,VALID,100,VALID,-0.0339617,VALID,19.0986,VALID,152,VALID,0.683594,
2008-02-14, 02:05:00,VALID,917.827,VALID,0,VALID,99.9555,VALID,-0.0339617,VALID,19.0951,VALID,150,VALID,0.840774,
2008-02-14, 02:06:00,VALID,917.817,VALID,0,VALID,99.8807,VALID,-0.0169808,VALID,19.0956,VALID,161,VALID,0.862282,
2008-02-14, 02:07:00,VALID,917.817,VALID,0,VALID,99.8502,VALID,-0.0169808,VALID,19.0986,VALID,152,VALID,1.28516,
2008-02-14, 02:08:00,VALID,917.808,VALID,0,VALID,99.723,VALID,-0.101885,VALID,19.1153,VALID,134,VALID,0.64577,
2008-02-14, 02:09:00,VALID,917.808,VALID,0,VALID,99.615,VALID,0,VALID,19.1148,VALID,145,VALID,0.550781,
2008-02-14, 02:10:00,VALID,917.791,VALID,0,VALID,99.5412,VALID,-0.0339617,VALID,19.1186,VALID,146,VALID,0.317014,
2008-02-14, 02:11:00,VALID,917.772,VALID,0,VALID,99.5476,VALID,-0.0509425,VALID,19.1014,VALID,153,VALID,0.0875727,
2008-02-14, 02:12:00,VALID,917.761,VALID,0,VALID,99.4903,VALID,-0.0339617,VALID,19.1086,VALID,151,VALID,0,
2008-02-14, 02:13:00,VALID,917.723,VALID,0,VALID,99.4713,VALID,-0.0169808,VALID,19.1014,VALID,155,VALID,0,
2008-02-14, 02:14:00,VALID,917.716,VALID,0,VALID,99.4509,VALID,-0.0509425,VALID,19.0951,VALID,149,VALID,0.543826,
2008-02-14, 02:15:00,VALID,917.699,VALID,0,VALID,99.3861,VALID,-0.0169808,VALID,19.0924,VALID,135,VALID,0.746094,
2008-02-14, 02:16:00,VALID,917.692,VALID,0,VALID,99.2805,VALID,-0.0169808,VALID,19.0692,VALID,143,VALID,1.05941,
2008-02-14, 02:17:00,VALID,917.696,VALID,0,VALID,99.2793,VALID,-0.0509425,VALID,19.0527,VALID,138,VALID,0.685976,
2008-02-14, 02:18:00,VALID,917.692,VALID,0,VALID,99.3352,VALID,-0.0509425,VALID,19.0629,VALID,144,VALID,0.654535,
2008-02-14, 02:19:00,VALID,917.698,VALID,0,VALID,99.311,VALID,-0.0339617,VALID,19.0565,VALID,139,VALID,0.1375,
2008-02-14, 02:20:00,VALID,917.695,VALID,0,VALID,99.25,VALID,-0.0509425,VALID,19.043,VALID,141,VALID,0.0226935,
2008-02-14, 02:21:00,VALID,917.696,VALID,0,VALID,99.2297,VALID,-0.0509425,VALID,19.0307,VALID,141,VALID,0,
2008-02-14, 02:22:00,VALID,917.684,VALID,0,VALID,99.2284,VALID,-0.0679233,VALID,19.0145,VALID,144,VALID,0.149601,
2008-02-14, 02:23:00,VALID,917.675,VALID,0,VALID,99.3212,VALID,-0.0509425,VALID,18.9916,VALID,155,VALID,0.0102307,
2008-02-14, 02:24:00,VALID,917.671,VALID,0,VALID,99.442,VALID,-0.0169808,VALID,18.9849,VALID,155,VALID,0,
2008-02-14, 02:25:00,VALID,917.67,VALID,0,VALID,99.5221,VALID,-0.0339617,VALID,18.9656,VALID,118,VALID,0,
2008-02-14, 02:26:00,VALID,917.652,VALID,0,VALID,99.5883,VALID,-0.0339617,VALID,18.9292,VALID,103,VALID,0.0767578,
2008-02-14, 02:27:00,VALID,917.644,VALID,0,VALID,99.8222,VALID,-0.0339617,VALID,18.9232,VALID,107,VALID,0.465701,
2008-02-14, 02:28:00,VALID,917.63,VALID,0,VALID,99.8273,VALID,-0.101885,VALID,18.9017,VALID,108,VALID,0.00284091,
2008-02-14, 02:29:00,VALID,917.63,VALID,0,VALID,99.9189,VALID,-0.0849042,VALID,18.8895,VALID,109,VALID,0,
2008-02-14, 02:30:00,VALID,917.624,VALID,0,VALID,99.999,VALID,-0.0849042,VALID,18.8693,VALID,112,VALID,0,
2008-02-14, 02:31:00,VALID,917.628,VALID,0,VALID,100,VALID,-0.101885,VALID,18.863,VALID,113,VALID,0,
2008-02-14, 02:32:00,VALID,917.635,VALID,0,VALID,100,VALID,-0.101885,VALID,18.8533,VALID,147,VALID,0,
2008-02-14, 02:33:00,VALID,917.633,VALID,0,VALID,100,VALID,-0.101885,VALID,18.8561,VALID,176,VALID,0,
2008-02-14, 02:34:00,VALID,917.638,VALID,0,VALID,100,VALID,-0.101885,VALID,18.873,VALID,174,VALID,0.0138494,
2008-02-14, 02:35:00,VALID,917.651,VALID,0,VALID,100,VALID,-0.101885,VALID,18.8862,VALID,171,VALID,0,
2008-02-14, 02:36:00,VALID,917.663,VALID,0,VALID,100,VALID,-0.118866,VALID,18.879,VALID,171,VALID,0,
2008-02-14, 02:37:00,VALID,917.676,VALID,0,VALID,100,VALID,-0.118866,VALID,18.8855,VALID,171,VALID,0,
2008-02-14, 02:38:00,VALID,917.67,VALID,0,VALID,100,VALID,-0.0849042,VALID,18.8788,VALID,172,VALID,0,
2008-02-14, 02:39:00,VALID,917.677,VALID,0,VALID,100,VALID,-0.118866,VALID,18.8698,VALID,172,VALID,0,
2008-02-14, 02:40:00,VALID,917.653,VALID,0,VALID,100,VALID,-0.101885,VALID,18.8371,VALID,172,VALID,0,
2008-02-14, 02:41:00,VALID,917.64,VALID,0,VALID,100,VALID,-0.101885,VALID,18.8074,VALID,172,VALID,0,
2008-02-14, 02:42:00,VALID,917.623,VALID,0,VALID,100,VALID,-0.0679233,VALID,18.7979,VALID,169,VALID,0,
2008-02-14, 02:43:00,VALID,917.614,VALID,0,VALID,100,VALID,0.0339617,VALID,18.783,VALID,147,VALID,0.115799,
2008-02-14, 02:44:00,VALID,917.592,VALID,0,VALID,100,VALID,0,VALID,18.7932,VALID,148,VALID,0.0324219,
2008-02-14, 02:45:00,VALID,917.574,VALID,0,VALID,100,VALID,0,VALID,18.7902,VALID,144,VALID,0.325817,
2008-02-14, 02:46:00,VALID,917.563,VALID,0,VALID,100,VALID,0,VALID,18.78,VALID,147,VALID,0.00253906,
2008-02-14, 02:47:00,VALID,917.559,VALID,0,VALID,100,VALID,0.0169808,VALID,18.7898,VALID,149,VALID,1.00903,
2008-02-14, 02:48:00,VALID,917.55,VALID,0,VALID,100,VALID,0,VALID,18.806,VALID,153,VALID,0.690341,
2008-02-14, 02:49:00,VALID,917.551,VALID,0,VALID,100,VALID,0,VALID,18.8125,VALID,151,VALID,0.297247,
2008-02-14, 02:50:00,VALID,917.556,VALID,0,VALID,100,VALID,0,VALID,18.8122,VALID,145,VALID,0.705859,
2008-02-14, 02:51:00,VALID,917.55,VALID,0,VALID,100,VALID,0,VALID,18.8222,VALID,134,VALID,0.500977,
2008-02-14, 02:52:00,VALID,917.552,VALID,0,VALID,100,VALID,0.0169808,VALID,18.822,VALID,130,VALID,0.516493,
2008-02-14, 02:53:00,VALID,917.523,VALID,0,VALID,100,VALID,0,VALID,18.8289,VALID,133,VALID,0.701029,
2008-02-14, 02:54:00,VALID,917.502,VALID,0,VALID,100,VALID,0,VALID,18.8289,VALID,140,VALID,0.54306,
2008-02-14, 02:55:00,VALID,917.461,VALID,0,VALID,100,VALID,-0.0169808,VALID,18.8356,VALID,127,VALID,0.887429,
2008-02-14, 02:56:00,VALID,917.444,VALID,0,VALID,100,VALID,0.0339617,VALID,18.8092,VALID,128,VALID,0.65298,
2008-02-14, 02:57:00,VALID,917.466,VALID,0,VALID,100,VALID,-0.0169808,VALID,18.7937,VALID,134,VALID,0.824405,
2008-02-14, 02:58:00,VALID,917.474,VALID,0,VALID,100,VALID,-0.0849042,VALID,18.7717,VALID,137,VALID,1.0867,
2008-02-14, 02:59:00,VALID,917.473,VALID,0,VALID,100,VALID,-0.0849042,VALID,18.7585,VALID,139,VALID,1.19212,
2008-02-14, 03:00:00,VALID,917.468,VALID,0,VALID,100,VALID,-0.0679233,VALID,18.7687,VALID,140,VALID,0.808061,
2008-02-14, 03:01:00,VALID,917.466,VALID,0,VALID,100,VALID,-0.0849042,VALID,18.7682,VALID,138,VALID,0.816679,
2008-02-14, 03:02:00,VALID,917.458,VALID,0,VALID,100,VALID,-0.101885,VALID,18.769,VALID,139,VALID,0.607143,
2008-02-14, 03:03:00,VALID,917.438,VALID,0,VALID,100,VALID,-0.101885,VALID,18.7587,VALID,138,VALID,0.754836,
2008-02-14, 03:04:00,VALID,917.418,VALID,0,VALID,100,VALID,-0.0849042,VALID,18.7555,VALID,149,VALID,1.21336,
2008-02-14, 03:05:00,VALID,917.395,VALID,0,VALID,100,VALID,-0.101885,VALID,18.7757,VALID,152,VALID,1.61523,
2008-02-14, 03:06:00,VALID,917.37,VALID,0,VALID,100,VALID,-0.101885,VALID,18.7849,VALID,156,VALID,1.42206,
2008-02-14, 03:07:00,VALID,917.384,VALID,0,VALID,100,VALID,-0.0849042,VALID,18.7752,VALID,152,VALID,1.20443,
2008-02-14, 03:08:00,VALID,917.391,VALID,0,VALID,100,VALID,-0.0679233,VALID,18.765,VALID,159,VALID,1.14883,
2008-02-14, 03:09:00,VALID,917.396,VALID,0,VALID,100,VALID,-0.101885,VALID,18.7652,VALID,161,VALID,1.2758,
2008-02-14, 03:10:00,VALID,917.386,VALID,0,VALID,100,VALID,-0.0849042,VALID,18.775,VALID,153,VALID,1.43477,
2008-02-14, 03:11:00,VALID,917.394,VALID,0,VALID,99.9903,VALID,-0.101885,VALID,18.8141,VALID,159,VALID,1.20276,
2008-02-14, 03:12:00,VALID,917.39,VALID,0,VALID,99.8349,VALID,-0.0679233,VALID,18.8301,VALID,160,VALID,0.676448,
2008-02-14, 03:13:00,VALID,917.394,VALID,0,VALID,99.6976,VALID,0.101885,VALID,18.831,VALID,152,VALID,0.849848,
2008-02-14, 03:14:00,VALID,917.404,VALID,0,VALID,99.6035,VALID,0.101885,VALID,18.8402,VALID,156,VALID,1.07374,
2008-02-14, 03:15:00,VALID,917.428,VALID,0,VALID,99.484,VALID,0.118866,VALID,18.8599,VALID,171,VALID,1.11702,
2008-02-14, 03:16:00,VALID,917.422,VALID,0,VALID,99.4255,VALID,0.101885,VALID,18.8666,VALID,158,VALID,1.0952,
2008-02-14, 03:17:00,VALID,917.417,VALID,0,VALID,99.3543,VALID,0.0849042,VALID,18.8734,VALID,156,VALID,0.945122,
2008-02-14, 03:18:00,VALID,917.408,VALID,0,VALID,99.2843,VALID,0.135847,VALID,18.8692,VALID,163,VALID,0.766897,
2008-02-14, 03:19:00,VALID,917.4,VALID,0,VALID,99.2322,VALID,0.118866,VALID,18.8794,VALID,160,VALID,0.947307,
2008-02-14, 03:20:00,VALID,917.391,VALID,0,VALID,99.1864,VALID,0.101885,VALID,18.8794,VALID,165,VALID,0.954975,
2008-02-14, 03:21:00,VALID,917.368,VALID,0,VALID,99.147,VALID,0.101885,VALID,18.8627,VALID,156,VALID,1.21819,
2008-02-14, 03:22:00,VALID,917.356,VALID,0,VALID,99.03,VALID,0.101885,VALID,18.8602,VALID,155,VALID,1.34482,
2008-02-14, 03:23:00,VALID,917.355,VALID,0,VALID,99.0478,VALID,0.101885,VALID,18.8437,VALID,165,VALID,0.717862,
2008-02-14, 03:24:00,VALID,917.375,VALID,0,VALID,99.1076,VALID,0.118866,VALID,18.8372,VALID,147,VALID,0,
2008-02-14, 03:25:00,VALID,917.385,VALID,0,VALID,99.0694,VALID,0.101885,VALID,18.8439,VALID,160,VALID,0.424826,
2008-02-14, 03:26:00,VALID,917.389,VALID,0,VALID,99.0809,VALID,0.101885,VALID,18.8337,VALID,167,VALID,0.0344122,
2008-02-14, 03:27:00,VALID,917.371,VALID,0,VALID,99.0682,VALID,0.0679233,VALID,18.8277,VALID,133,VALID,0.450457,
2008-02-14, 03:28:00,VALID,917.34,VALID,0,VALID,99.0593,VALID,0,VALID,18.8461,VALID,162,VALID,0.653582,
2008-02-14, 03:29:00,VALID,917.336,VALID,0,VALID,98.9792,VALID,-0.0169808,VALID,18.8329,VALID,154,VALID,0.158482,
2008-02-14, 03:30:00,VALID,917.336,VALID,0,VALID,98.9931,VALID,0,VALID,18.8159,VALID,147,VALID,0,
2008-02-14, 03:31:00,VALID,917.34,VALID,0,VALID,99.0529,VALID,0,VALID,18.8194,VALID,147,VALID,0,
2008-02-14, 03:32:00,VALID,917.319,VALID,0,VALID,99.0338,VALID,-0.0169808,VALID,18.8266,VALID,148,VALID,0.00117188,
2008-02-14, 03:33:00,VALID,917.323,VALID,0,VALID,98.9982,VALID,0,VALID,18.7997,VALID,149,VALID,0,
2008-02-14, 03:34:00,VALID,917.333,VALID,0,VALID,98.9881,VALID,-0.0339617,VALID,18.797,VALID,149,VALID,0.0809295,
2008-02-14, 03:35:00,VALID,917.334,VALID,0,VALID,99.0237,VALID,-0.0169808,VALID,18.7835,VALID,149,VALID,0,
2008-02-14, 03:36:00,VALID,917.358,VALID,0,VALID,99.0377,VALID,0,VALID,18.7872,VALID,148,VALID,0,
2008-02-14, 03:37:00,VALID,917.384,VALID,0,VALID,99.0338,VALID,-0.0169808,VALID,18.7745,VALID,153,VALID,0,
2008-02-14, 03:38:00,VALID,917.399,VALID,0,VALID,99.0237,VALID,-0.0339617,VALID,18.7485,VALID,166,VALID,0.153516,